Flag for U.S.A. Weather past 2 weeks in Paramus, New Jersey, U.S.A.

Now
24 °F

Overcast.


Feels Like: 17 °F
Forecast: 17 / 25 °F
Wind: 6 mph from Northeast

Location: Teterboro Airport

Current Time: Feb 26, 2015 at 8:40:50 PM

Latest Report: Feb 26, 2015 at 7:51 PM


Visibility: 10 mi

Pressure: 30.06 "Hg

Humidity: 57%

Dew point: 11 °F

Location of ParamusLocation

Historic Weather in Paramus — Graph

°F

Paramus temperature yesterday

Maximum temperature yesterday: 37 °F (at 2:51 PM)
Minimum temperature yesterday: 13 °F (at 4:51 AM)
Average temperature yesterday: 28 °F

Past Weeks' High & Low Weather Summary

 TemperatureHumidityPressure
High43 °F (Feb 22, 2:51 PM)93% (Feb 14, 4:58 PM)30.53 "Hg (Feb 14, 4:58 PM)
Low1 °F (Feb 20, 5:51 AM)26% (Feb 16, 12:51 PM)29.45 "Hg (Feb 14, 11:51 PM)
Average20 °F54%30.02 "Hg
* Reported Feb 11 6:51 PM — Feb 26 6:51 PM, Paramus, Weather by CustomWeather, © 2015

Note: Actual official high and low records may vary slightly from our data, if they occured in-between our weather recording intervals... More about our weather records

Advertising

Paramus weather history for previous 24 hours

 ConditionsComfort  
Time TempWeatherWind HumidityBarometerVisibility
6:51 PM
Thu, Feb 26
25 °FOvercast.3 mph58%30.05 "Hg10 mi
5:51 PM25 °FOvercast.6 mph60%30.01 "Hg10 mi
4:51 PM26 °FOvercast.8 mph57%30.00 "Hg10 mi
3:51 PM26 °FLight snow. Overcast.6 mph57%29.98 "Hg9 mi
2:51 PM25 °FOvercast.8 mph63%29.95 "Hg10 mi
1:51 PM23 °FOvercast.12 mph68%29.92 "Hg10 mi
12:51 PM24 °FMostly cloudy.10 mph68%29.94 "Hg8 mi
11:51 AM21 °FLight snow. Mostly cloudy.9 mph74%30.00 "Hg2 mi
10:51 AM21 °FLight snow. Mostly cloudy.9 mph55%30.03 "Hg9 mi
9:51 AM21 °FOvercast.8 mph50%30.02 "Hg10 mi
8:51 AM21 °FOvercast.9 mph50%30.01 "Hg10 mi
7:51 AM21 °FOvercast.9 mph47%30.03 "Hg10 mi
6:51 AM21 °FOvercast.8 mph47%30.01 "Hg10 mi
5:51 AM21 °FPassing clouds.10 mph45%30.01 "Hg10 mi
4:51 AM22 °FPassing clouds.8 mph44%30.02 "Hg10 mi
3:51 AM23 °FClear.7 mph44%30.02 "Hg10 mi
2:51 AM25 °FClear.9 mph38%30.01 "Hg10 mi
1:51 AM27 °FClear.8 mph37%30.01 "Hg10 mi
12:51 AM28 °FClear.7 mph41%30.03 "Hg10 mi
11:51 PM
Wed, Feb 25
30 °FClear.5 mph41%29.99 "Hg10 mi
10:51 PM31 °FClear.No wind45%29.96 "Hg10 mi
9:51 PM31 °FClear.5 mph47%29.99 "Hg10 mi
8:51 PM32 °FClear.5 mph45%29.97 "Hg10 mi
Weather by CustomWeather, © 2015

See weather overviewHow to use our weather pages